Home > Weather > Igloolik > Past weeks

Flag for Canada Past Weather in Igloolik, Nunavut, Canada — Yesterday and Last 2 Weeks

Now
37 °F

Mostly cloudy.


Feels Like: 27 °F
Forecast: 35 / 43 °F
Wind: 20 mph from Northwest

Location: Hall Beach

Current Time: Jun 26, 2016 at 2:31:30 AM

Latest Report: Jun 26, 2016 at 2:00 AM


Visibility: 9 mi

Pressure: 29.71 "Hg

Humidity: 87%

Dew Point: 34 °F

Location of IgloolikLocation

Past Weather in Igloolik — Graph

°F

Igloolik Temperature Yesterday

Maximum temperature yesterday: 46 °F (at 4:00 PM)
Minimum temperature yesterday: 36 °F (at 3:00 AM)
Average temperature yesterday: 41 °F

High & Low Weather Summary for the Past Weeks

 TemperatureHumidityPressure
High48 °F (Jun 22, 4:00 PM)100% (Jun 12, 1:00 AM)30.29 "Hg (Jun 12, 1:00 AM)
Low28 °F (Jun 12, 1:00 AM)57% (Jun 25, 4:00 PM)29.19 "Hg (Jun 18, 2:00 PM)
Average37 °F90%29.79 "Hg
* Reported Jun 11 1:00 AM — Jun 26 1:00 AM, Igloolik, Weather by CustomWeather, © 2016

Note: Actual official high and low records may vary slightly from our data, if they occured in-between our weather recording intervals... More about our weather records

Advertising

Igloolik Weather History for the Previous 24 Hours

Scroll right to see more
 ConditionsComfort  
Time TempWeatherWind HumidityBarometerVisibility
1:00 AM
Sun, Jun 26
37 °FOvercast.20 mph87%29.72 "Hg9 mi
12:00 AM39 °FOvercast.20 mph87%29.72 "Hg9 mi
11:00 PM
Sat, Jun 25
41 °FOvercast.23 mph81%29.72 "Hg9 mi
10:00 PM43 °FOvercast.21 mph81%29.72 "Hg9 mi
9:00 PM45 °FOvercast.14 mph76%29.72 "Hg9 mi
8:00 PM45 °FPartly sunny.16 mph71%29.72 "Hg15 mi
7:00 PM46 °FPartly sunny.16 mph62%29.72 "Hg15 mi
6:00 PM46 °FPartly sunny.16 mph62%29.72 "Hg15 mi
5:00 PM46 °FPartly sunny.16 mph62%29.71 "Hg15 mi
4:00 PM46 °FPartly sunny.16 mph57%29.70 "Hg15 mi
3:00 PM45 °FScattered clouds.16 mph66%29.70 "Hg15 mi
2:00 PM45 °FScattered clouds.21 mph66%29.69 "Hg15 mi
1:00 PM43 °FPartly sunny.21 mph71%29.68 "Hg15 mi
12:00 PM41 °FPartly sunny.21 mph76%29.68 "Hg15 mi
11:00 AM41 °FPartly sunny.23 mph76%29.67 "Hg15 mi
10:00 AM39 °FPartly sunny.22 mph81%29.67 "Hg15 mi
9:00 AM39 °FPartly sunny.21 mph81%29.66 "Hg15 mi
8:00 AM37 °FBroken clouds.17 mph87%29.67 "Hg15 mi
7:00 AM36 °FScattered clouds.20 mph87%29.66 "Hg9 mi
6:00 AM37 °FSunny.20 mph81%29.66 "Hg9 mi
5:00 AM36 °FSunny.16 mph87%29.66 "Hg9 mi
4:00 AM36 °FSunny.18 mph87%29.65 "Hg9 mi
3:00 AM36 °FSunny.22 mph87%29.64 "Hg9 mi
2:00 AM37 °FScattered clouds.21 mph75%29.64 "Hg9 mi
Weather by CustomWeather, © 2016

See weather overviewHow to use our weather pages